Flag for Brazil Weather past 2 weeks in Belém, Para, Brazil

Now
88 °F

Partly sunny.


Feels Like: 96 °F
Forecast: 74 / 87 °F
Wind: 14 mph from Northeast

Location: Belem Aeroporto


UV Index: 7 (High)

Visibility: N/A


Pressure: 29.89 "Hg

Humidity: 62%

Dew point: 73 °F

Location of BelémLocation

Historic Weather in Belém

°F

Belém temperature yesterday

Maximum temperature yesterday: 88 °F (at 12:00 PM)
Minimum temperature yesterday: 75 °F (at 3:00 AM)
Average temperature yesterday: 80 °F

Past Weeks' High & Low Weather Summary

 TemperatureHumidityPressure
High88 °F (Apr 14, 12:00 PM)100% (Apr 9, 3:00 AM)29.98 "Hg (Apr 9, 3:00 AM)
Low41 °F (Apr 19, 8:00 PM)20% (Apr 13, 3:00 PM)29.71 "Hg (Apr 14, 5:00 PM)
Average78 °F88%29.86 "Hg
* Reported Apr 8 12:00 Noon — Apr 23 12:00 Noon, Belém, Weather by CustomWeather, © 2014

Note: Actual official high and low records may vary slightly from our data, if they occured in-between our weather recording intervals... More about our weather records

Advertising

Historic Weather Conditions — Data for Previous 24 hours

 ConditionsComfort  
Time TempWeatherWind HumidityBarometerVisibility
12:00 PM
Apr 23
88 °FPartly sunny.14 mph62%29.89 "HgN/A
11:00 AM86 °FPartly sunny.10 mph70%29.92 "HgN/A
10:00 AM82 °FPartly sunny.7 mph79%29.92 "HgN/A
9:00 AM81 °FPartly sunny.8 mph84%29.92 "HgN/A
8:00 AM79 °FBroken clouds.5 mph89%29.92 "HgN/A
7:00 AM77 °FScattered clouds.2 mph94%29.89 "Hg5 mi
6:00 AM75 °FPartly cloudy.2 mph100%29.86 "HgN/A
5:00 AM75 °FClear.2 mph94%29.83 "Hg10 mi
4:00 AM77 °FClear.3 mph94%29.83 "Hg10 mi
3:00 AM77 °FClear.5 mph94%29.83 "Hg10 mi
2:00 AM77 °FClear.5 mph94%29.83 "Hg10 mi
1:00 AM77 °FClear.6 mph94%29.83 "Hg10 mi
12:00 AM77 °FClear.8 mph94%29.86 "Hg10 mi
11:00 PM
Apr 22
79 °FClear.7 mph89%29.86 "Hg10 mi
10:00 PM79 °FClear.3 mph89%29.86 "Hg10 mi
9:00 PM79 °FPartly cloudy.3 mph89%29.86 "HgN/A
8:00 PM79 °FPassing clouds.5 mph89%29.83 "HgN/A
7:00 PM81 °FPartly cloudy.3 mph84%29.83 "HgN/A
6:00 PM81 °FBroken clouds.7 mph89%29.80 "HgN/A
5:00 PM82 °FPartly sunny.6 mph84%29.77 "HgN/A
4:00 PM82 °FBroken clouds.10 mph79%29.77 "HgN/A
3:00 PM81 °FBroken clouds.6 mph84%29.80 "HgN/A
2:00 PM86 °FPartly sunny.9 mph75%29.80 "HgN/A
1:00 PM84 °FLight rain. Partly sunny.10 mph74%29.83 "HgN/A
12:00 PM88 °FPartly sunny.10 mph62%29.86 "HgN/A
Weather by CustomWeather, © 2014

See weather overview